This demonstration page uses our WeatherBlox Daily Observations layout. Learn more.

Left ArrowRight Arrow

34.74481, -87.66753

Hourly Observations for May 9, 2022

Temp ( °F °C ) Dew Point ( °F °C ) Humidity (%) Winds ( mph kmh ) Pressure ( in mb ) Visibility ( mi km ) Precip ( " mm )
12:53 am 00:53 Clear 64 17.8 55 12.8 73 73 SE 9 15 29.91 1013 10 16 0.00 0.00
1:53 am 01:53 Clear 63 17.2 54 12.2 73 73 SE 7 11 29.91 1013 10 16 0.00 0.00
2:53 am 02:53 Clear 60 15.6 54 12.2 80 80 SE 5 7 29.92 1013 10 16 0.00 0.00
3:53 am 03:53 Clear 58 14.4 53 11.7 84 84 ESE 5 7 29.94 1014 10 16 0.00 0.00
4:53 am 04:53 Clear 57 13.9 53 11.7 87 87 E 5 7 29.96 1015 10 16 0.00 0.00
5:53 am 05:53 Partly Cloudy 59 15 54 12.2 83 83 ESE 5 7 29.98 1015 10 16 0.00 0.00
6:53 am 06:53 Cloudy 61 16.1 54 12.2 78 78 ESE 8 13 30.01 1016 10 16 0.00 0.00
7:53 am 07:53 Cloudy 64 17.8 56 13.3 75 75 SE 7 11 30.04 1017 10 16 0.00 0.00
8:53 am 08:53 Cloudy 66 18.9 56 13.3 70 70 SE 9 15 30.06 1018 10 16 0.00 0.00
9:53 am 09:53 Cloudy 68 20 57 13.9 68 68 SSE 10 17 30.06 1018 10 16 0.00 0.00
10:53 am 10:53 Cloudy 71 21.7 58 14.4 63 63 SE 9 15 30.07 1018 10 16 0.00 0.00
11:53 am 11:53 Cloudy 73 22.8 59 15 62 62 SSE 12 19 30.07 1018 10 16 0.00 0.00
12:53 pm 12:53 Cloudy 77 25 60 15.6 56 56 S 10 17 30.06 1018 10 16 0.00 0.00
1:53 pm 13:53 Sunny 78 25.6 61 16.1 56 56 VRB 5 7 30.05 1018 10 16 0.00 0.00
2:53 pm 14:53 Mostly Cloudy 80 26.7 63 17.2 56 56 ESE 7 11 30.04 1017 10 16 0.00 0.00
3:53 pm 15:53 Cloudy 81 27.2 63 17.2 54 54 SE 9 15 30.03 1017 10 16 0.00 0.00
4:53 pm 16:53 Sunny 81 27.2 63 17.2 54 54 SSE 8 13 30.02 1017 10 16 0.00 0.00
5:53 pm 17:53 Sunny 81 27.2 64 17.8 57 57 SE 9 15 30.02 1017 10 16 0.00 0.00
6:53 pm 18:53 Sunny 79 26.1 63 17.2 58 58 SE 8 13 30.03 1017 10 16 0.00 0.00
7:53 pm 19:53 Clear 75 23.9 63 17.2 66 66 SSE 8 13 30.03 1017 10 16 0.00 0.00
8:53 pm 20:53 Clear 72 22.2 62 16.7 71 71 SE 7 11 30.04 1017 10 16 0.00 0.00
9:53 pm 21:53 Clear 69 20.6 61 16.1 76 76 SE 6 9 30.06 1018 10 16 0.00 0.00
10:53 pm 22:53 Clear 67 19.4 60 15.6 79 79 SE 5 7 30.08 1019 10 16 0.00 0.00
11:53 pm 23:53 Clear 65 18.3 60 15.6 84 84 SE 5 7 30.09 1019 10 16 0.00 0.00

Powered by AerisWeather